Location: Camaret
(48.2753°N, 4.5961°W)
Time: 06:16:10
(UTC+00:00)

X-37B - Pass Details

Date: 26 January 2021
Orbit: 383 x 391 km, 45.0° (Epoch: 27 February)

Event Time Altitude Azimuth Distance (km) Brightness Sun altitude
Rises 19:38:56 0° 271° (W) 2,276 5.9 -24.9°
Reaches altitude 10° 19:41:08 10° 261° (W) 1,421 4.4 -25.3°
Enters shadow 19:42:43 22° 240° (WSW) 901 3.0 -25.5°
